Terug naar catalogus

STARLINK-35382

ActiefCommunicatieVLEO
NORAD 66019·PAYLOAD·🇺🇸 United States

Gelanceerd Oct 16, 2025 vanaf Cape Canaveral Space Force Station

Loading…

Volgende Passages (komende 24 uur)

TLE

VersSource: CelesTrak SupGP

Epoch: Sep 14, 2026, 20:50 UTC

1 66019C 25232Q   26257.86854167 -.00004615  00000+0 -13639-3 0  2572
2 66019  53.1577 302.2551 0001244  69.7883 199.4825 15.34382645    12

Volg STARLINK-35382 in realtime met AllMySat

Download on the App Store